Wind_Speed
48 48 49 49 48 47 46 45 44 43 43 43 42 41 40 40 39 38 37 37 36 36 36 36 36 37 38 38 39 41 42 43 45 47 47 47 47 47 47 48 47 47 47
45 45 46 48 48 47 47 46 45 45 44 44 44 43 42 41 40 40 39 39 38 38 38 38 38 39 40 41 42 43 45 46 48 49 49 48 47 47 47 47 47 47 47
44 44 45 45 46 46 46 47 46 45 45 45 44 44 43 42 41 41 40 40 40 40 40 40 41 42 42 43 44 46 48 49 50 50 51 51 49 48 46 46 46 46 47
43 43 43 44 45 45 46 46 46 46 46 45 45 44 44 43 42 42 42 41 42 42 42 42 43 43 44 45 47 49 50 51 51 51 51 51 50 50 48 46 46 46 47
41 41 42 43 44 45 45 46 46 46 46 46 46 45 45 44 43 43 43 43 44 44 44 44 44 45 46 48 49 50 51 51 51 51 50 50 49 49 49 47 46 47 48
41 42 42 42 43 44 45 45 46 47 47 47 47 46 46 46 45 45 45 45 45 45 45 45 46 47 48 50 50 51 51 51 50 50 49 49 48 48 48 47 47 48 49
43 43 43 43 44 44 45 45 46 47 47 47 47 47 47 46 46 46 46 46 46 46 46 47 48 49 50 50 50 50 49 49 48 48 48 48 47 47 47 47 47 48 49
43 44 44 45 46 46 46 46 46 46 47 47 47 47 47 47 47 46 46 46 46 47 47 48 49 50 50 50 49 48 47 47 46 46 46 46 46 46 46 47 48 49 48
42 44 45 46 47 47 47 47 47 47 47 47 47 47 47 48 47 47 47 47 47 48 48 49 49 49 49 48 47 46 46 45 45 44 44 44 44 45 46 47 48 48 46
41 43 44 45 46 47 48 48 48 48 48 47 47 47 47 47 47 46 46 47 47 48 48 49 49 48 46 45 45 44 44 44 43 43 43 43 44 44 45 46 45 45 44
40 42 44 45 46 47 47 47 47 47 47 48 48 47 47 47 47 47 47 47 48 48 48 47 46 44 43 43 43 43 42 42 42 42 42 43 43 43 44 43 42 42 41
37 39 41 43 44 45 45 46 46 46 47 47 47 47 47 47 47 46 47 46 46 46 45 43 42 42 41 41 41 41 41 41 41 41 42 42 42 41 41 40 40 39 38
34 36 38 40 41 42 43 43 44 44 45 45 45 45 45 45 45 45 45 44 43 42 41 41 40 40 39 39 39 39 39 39 39 40 40 40 40 39 38 38 37 37 35
33 34 35 37 39 39 40 41 41 41 42 42 42 42 42 42 42 42 41 40 40 39 38 38 37 37 37 37 37 36 37 38 38 38 38 38 37 37 36 36 35 34 33
31 32 33 35 36 38 39 39 39 40 40 40 40 40 39 39 38 38 37 37 36 35 35 34 34 34 34 34 34 35 35 35 36 36 36 36 36 35 35 34 33 32 31
31 32 33 34 34 36 37 37 37 37 37 37 37 37 36 35 35 35 34 33 32 32 31 31 31 31 31 32 33 33 33 33 34 34 34 34 34 34 33 33 32 32 31
32 32 33 33 34 35 35 35 35 34 34 33 33 33 33 33 32 31 30 30 29 29 29 28 28 29 29 30 30 31 31 32 33 33 33 33 33 33 32 32 32 32 32
31 32 31 32 32 32 32 32 32 32 32 31 31 31 30 30 29 28 28 27 27 26 26 26 26 27 28 28 29 30 31 31 32 32 32 32 32 32 32 32 32 32 33
28 29 28 28 29 29 29 29 30 30 30 29 28 28 28 27 27 26 26 25 24 24 24 24 25 25 26 27 28 29 30 31 32 32 32 32 32 32 33 33 33 33 34
26 26 26 26 27 27 27 27 27 27 27 26 26 26 26 25 25 24 23 23 22 22 23 23 24 25 27 28 29 30 31 31 32 32 33 33 33 33 33 34 34 35 36
24 24 25 25 25 25 25 25 26 25 25 25 25 25 24 24 23 22 22 21 21 22 23 24 25 26 28 29 30 31 32 32 32 33 33 34 34 34 34 35 35 36 37
22 23 23 24 24 24 24 24 24 24 24 24 24 24 24 23 23 22 22 22 22 23 24 25 26 27 28 30 31 31 32 33 33 33 34 34 35 35 35 36 36 37 38
21 21 21 21 23 23 24 24 24 24 23 23 23 23 23 23 23 22 23 23 23 24 25 27 27 28 29 30 31 32 32 33 33 34 34 35 35 36 37 37 38 39 39
21 21 21 21 22 23 23 23 23 24 24 24 24 24 24 24 24 24 24 25 25 26 28 29 29 30 31 31 32 33 33 33 34 34 35 36 37 38 38 39 39 40 41
21 21 21 22 22 23 23 24 24 24 24 25 25 25 25 25 25 26 26 27 28 28 29 30 31 32 33 33 34 34 34 35 35 37 37 38 38 39 39 40 41 42 43
22 22 22 23 23 24 24 24 25 25 26 26 26 27 27 27 28 28 28 29 30 30 31 32 32 33 34 35 35 36 36 37 37 38 38 39 40 40 41 41 42 43 45
Wind_Direction
232 233 234 235 235 236 238 239 240 243 246 250 252 255 258 261 263 266 269 271 274 275 278 279 281 283 285 287 288 290 291 292 292 293 294 295 296 296 296 295 296 295 295
232 233 234 235 236 238 239 241 242 244 246 249 252 254 257 259 262 264 267 270 272 274 276 278 280 282 284 285 287 288 290 291 292 293 293 293 294 295 295 296 296 295 295
232 234 235 236 236 238 240 242 243 245 247 249 252 254 257 259 262 265 267 269 272 274 276 278 280 282 284 286 287 289 290 291 292 293 294 294 294 294 295 295 295 295 295
234 236 237 238 239 239 240 242 244 246 248 250 253 255 257 260 262 265 267 270 272 274 276 278 280 282 284 286 288 289 290 291 292 293 294 295 296 296 295 295 295 294 294
238 238 239 240 240 240 241 242 244 246 248 250 253 255 257 260 262 265 267 270 272 273 275 277 279 282 284 287 288 289 290 291 292 293 294 295 296 297 297 296 296 295 295
238 238 239 241 242 242 242 243 244 246 248 251 253 255 257 260 263 265 267 269 271 273 275 277 280 282 285 287 288 289 290 291 292 293 295 295 296 297 297 297 297 296 296
239 239 239 241 242 243 244 245 246 247 249 251 254 256 258 260 263 265 266 268 270 273 275 278 281 283 285 286 288 289 290 291 292 293 294 295 296 296 296 297 298 298 298
239 239 240 241 243 244 245 246 247 249 250 252 254 257 259 261 263 265 267 269 271 274 276 279 281 283 285 286 288 289 290 291 292 293 294 295 295 296 297 298 299 300 300
238 238 240 241 243 244 245 247 248 250 251 253 255 257 259 261 263 265 267 270 272 275 277 280 282 284 285 287 288 289 290 291 292 293 294 294 295 296 297 299 300 301 302
240 240 240 241 242 244 245 247 248 250 251 253 255 257 259 261 263 265 268 270 273 275 278 280 282 284 285 287 288 290 290 291 292 293 293 294 295 296 298 299 300 302 303
242 242 242 242 242 244 245 247 249 250 252 253 255 257 259 262 264 266 269 271 273 276 278 280 281 283 285 287 288 289 290 291 292 293 294 294 295 296 298 300 301 303 304
244 244 244 244 245 245 246 248 250 251 252 253 255 257 259 261 264 267 269 272 274 276 277 279 281 283 285 286 287 288 289 290 292 293 294 294 296 297 299 300 302 303 304
243 244 244 245 245 246 248 249 250 252 253 254 256 258 260 262 265 267 270 271 273 275 277 279 280 283 284 286 287 288 289 291 292 293 294 295 296 298 300 301 303 304 304
241 243 244 246 246 247 248 249 251 253 255 255 257 259 261 263 266 267 269 271 272 274 276 278 280 282 284 285 287 288 290 292 293 294 295 296 297 299 301 302 303 304 304
241 242 243 245 247 247 248 250 252 254 256 257 258 260 262 263 265 266 268 269 271 273 275 278 280 282 283 285 287 289 291 293 294 295 296 297 298 299 301 303 303 304 304
241 242 242 244 245 247 248 250 252 254 256 257 257 258 259 261 262 264 266 268 269 272 274 277 279 281 284 286 288 290 292 294 296 297 298 299 299 300 301 302 303 303 303
242 243 243 245 246 246 247 248 250 252 254 255 255 256 257 258 260 261 264 266 268 271 273 276 279 282 284 287 289 291 293 296 297 298 299 300 300 300 301 301 302 303 303
245 246 246 247 247 247 247 248 249 250 251 251 253 254 255 256 258 260 262 264 267 269 272 276 279 283 286 289 291 293 295 297 298 299 300 300 300 300 301 301 301 302 303
248 247 247 247 246 245 245 245 246 247 248 250 251 253 254 255 257 259 260 263 266 269 273 277 281 285 289 291 293 295 297 298 299 300 301 301 301 301 301 301 302 302 303
248 247 246 246 245 244 244 244 245 245 246 248 250 251 252 255 256 257 259 262 265 269 274 279 284 288 291 293 295 297 298 299 300 301 301 301 301 300 300 301 302 302 303
248 248 245 244 244 244 244 245 245 244 246 248 249 251 252 254 255 257 259 262 266 271 276 281 285 289 292 294 296 297 298 299 300 300 301 301 301 301 301 302 302 303 303
247 245 244 244 244 244 245 246 245 245 246 248 249 251 253 253 255 257 261 265 269 274 278 282 286 290 292 294 296 297 298 299 300 301 302 302 302 302 302 302 303 303 304
247 245 244 245 246 247 248 247 246 246 247 249 251 253 254 255 256 259 263 268 272 276 280 284 286 290 292 294 295 297 298 300 301 302 302 302 303 302 303 303 303 303 304
246 246 246 247 249 249 250 250 250 249 250 251 254 256 257 259 260 263 267 270 273 277 281 284 287 289 291 293 295 296 297 299 300 301 302 303 303 303 303 303 303 304 304
247 248 248 247 249 250 252 253 253 254 254 255 257 258 260 262 264 267 270 273 276 279 282 285 287 289 290 292 294 295 297 298 299 301 302 303 303 303 303 304 304 304 305
251 252 251 251 252 253 254 255 256 258 258 259 260 261 263 265 267 270 272 275 278 281 283 285 287 289 290 292 293 294 296 297 299 301 302 302 303 303 304 304 304 305 306
Height
5779 5785 5790 5794 5799 5803 5807 5811 5815 5817 5820 5822 5825 5826 5828 5829 5830 5831 5831 5832 5832 5832 5832 5831 5830 5829 5828 5827 5825 5823 5821 5819 5816 5813 5812 5809 5806 5803 5800 5796 5793 5790 5786
5772 5777 5782 5786 5791 5795 5799 5803 5806 5809 5812 5814 5817 5819 5821 5822 5823 5824 5825 5825 5825 5825 5824 5824 5823 5822 5820 5819 5817 5815 5812 5810 5807 5804 5801 5801 5799 5795 5790 5787 5784 5780 5777
5766 5770 5775 5779 5783 5787 5791 5794 5797 5801 5803 5806 5808 5811 5813 5814 5816 5816 5817 5817 5817 5817 5816 5815 5815 5813 5812 5810 5808 5805 5803 5801 5798 5794 5791 5789 5788 5786 5783 5778 5774 5770 5767
5759 5763 5767 5771 5775 5779 5782 5786 5789 5792 5795 5797 5800 5802 5804 5806 5807 5808 5808 5808 5808 5808 5807 5806 5805 5804 5802 5801 5799 5796 5793 5790 5788 5784 5780 5777 5775 5773 5772 5770 5765 5761 5757
5751 5755 5759 5763 5767 5770 5774 5778 5781 5784 5786 5789 5791 5793 5795 5797 5798 5799 5799 5799 5799 5799 5798 5797 5796 5795 5793 5791 5789 5786 5783 5779 5777 5774 5771 5767 5764 5761 5758 5758 5755 5751 5746
5743 5746 5750 5755 5758 5762 5765 5769 5772 5775 5777 5780 5782 5784 5786 5788 5789 5790 5791 5790 5790 5790 5789 5788 5787 5785 5783 5781 5778 5775 5772 5769 5766 5763 5760 5757 5754 5750 5747 5745 5743 5740 5735
5734 5738 5742 5746 5749 5753 5756 5759 5762 5765 5768 5770 5773 5775 5777 5778 5780 5780 5781 5781 5781 5780 5779 5778 5777 5775 5773 5771 5768 5765 5762 5759 5756 5753 5749 5746 5743 5740 5736 5733 5731 5727 5724
5725 5729 5733 5737 5740 5743 5747 5750 5753 5756 5758 5761 5763 5765 5767 5768 5770 5770 5771 5771 5771 5770 5769 5768 5766 5765 5763 5760 5758 5755 5752 5749 5746 5742 5739 5736 5732 5729 5725 5722 5718 5715 5711
5716 5720 5723 5727 5731 5734 5737 5740 5743 5746 5749 5751 5753 5755 5757 5758 5759 5760 5761 5761 5760 5760 5759 5757 5756 5754 5752 5749 5747 5744 5741 5738 5735 5732 5729 5726 5722 5718 5714 5710 5706 5702 5698
5707 5711 5714 5717 5721 5724 5727 5730 5733 5736 5738 5741 5743 5745 5747 5748 5749 5750 5750 5750 5750 5749 5748 5747 5745 5743 5741 5739 5736 5734 5731 5728 5725 5722 5719 5716 5712 5708 5704 5699 5694 5689 5685
5699 5702 5705 5708 5711 5714 5718 5720 5723 5726 5729 5731 5733 5735 5737 5738 5739 5740 5740 5740 5739 5739 5738 5736 5735 5733 5731 5729 5726 5724 5721 5718 5716 5712 5709 5706 5702 5698 5693 5689 5684 5679 5674
5691 5693 5696 5699 5702 5705 5708 5711 5714 5716 5719 5721 5723 5725 5727 5728 5729 5729 5730 5729 5729 5728 5727 5726 5725 5723 5721 5719 5716 5714 5711 5709 5706 5703 5699 5696 5692 5688 5684 5679 5674 5670 5665
5683 5685 5688 5691 5693 5696 5699 5702 5705 5707 5709 5711 5713 5715 5717 5718 5719 5719 5719 5719 5719 5718 5717 5716 5715 5713 5711 5709 5707 5704 5702 5699 5696 5693 5690 5686 5682 5678 5674 5669 5665 5661 5656
5675 5677 5680 5682 5685 5688 5690 5693 5696 5698 5700 5702 5704 5705 5707 5708 5709 5709 5709 5709 5709 5708 5707 5706 5705 5703 5702 5700 5698 5695 5693 5690 5687 5684 5680 5677 5673 5669 5665 5661 5656 5652 5648
5668 5670 5672 5674 5677 5679 5682 5684 5687 5689 5691 5693 5694 5696 5697 5698 5699 5700 5700 5700 5699 5699 5698 5697 5696 5694 5693 5691 5689 5687 5684 5681 5678 5675 5671 5668 5664 5660 5656 5652 5648 5645 5641
5660 5662 5664 5666 5669 5671 5674 5676 5678 5680 5682 5684 5685 5687 5688 5689 5690 5691 5691 5691 5690 5690 5689 5688 5687 5686 5685 5683 5680 5678 5676 5673 5670 5666 5663 5659 5656 5652 5648 5644 5641 5637 5633
5653 5655 5657 5659 5661 5663 5665 5668 5670 5672 5674 5675 5677 5678 5680 5681 5681 5682 5682 5682 5682 5682 5681 5680 5679 5678 5676 5675 5672 5670 5667 5664 5661 5658 5655 5651 5647 5644 5640 5637 5633 5629 5625
5646 5648 5650 5652 5654 5656 5658 5660 5662 5664 5666 5667 5669 5670 5671 5672 5673 5674 5674 5674 5674 5674 5673 5673 5672 5670 5669 5667 5664 5662 5659 5656 5653 5650 5647 5643 5640 5636 5633 5629 5625 5621 5618
5639 5641 5643 5645 5646 5648 5650 5652 5654 5656 5658 5660 5661 5663 5664 5665 5666 5666 5667 5667 5667 5667 5666 5665 5664 5663 5661 5659 5657 5654 5652 5649 5646 5642 5639 5635 5632 5628 5625 5621 5617 5614 5610
5632 5634 5636 5638 5640 5642 5644 5646 5647 5649 5651 5653 5654 5656 5657 5658 5659 5659 5659 5659 5660 5659 5659 5658 5657 5655 5654 5651 5649 5647 5644 5641 5638 5635 5631 5628 5624 5620 5616 5613 5609 5605 5601
5627 5628 5630 5632 5634 5636 5638 5639 5641 5643 5645 5646 5648 5649 5650 5651 5652 5652 5652 5653 5653 5652 5652 5651 5649 5648 5646 5644 5642 5639 5636 5633 5630 5626 5623 5619 5616 5612 5608 5604 5600 5596 5592
5621 5623 5625 5626 5628 5630 5632 5633 5635 5637 5639 5640 5641 5643 5644 5644 5645 5645 5646 5646 5645 5645 5644 5643 5642 5640 5638 5636 5634 5631 5628 5625 5622 5618 5615 5611 5607 5603 5599 5595 5591 5587 5583
5616 5618 5619 5621 5623 5624 5626 5628 5629 5631 5632 5634 5635 5636 5637 5638 5638 5639 5639 5639 5638 5638 5637 5636 5634 5633 5631 5628 5626 5623 5620 5617 5613 5610 5606 5602 5598 5594 5590 5586 5582 5577 5573
5611 5613 5614 5616 5617 5619 5620 5622 5624 5625 5626 5628 5629 5630 5630 5631 5631 5631 5632 5631 5631 5630 5629 5628 5626 5624 5622 5620 5618 5615 5612 5608 5605 5601 5597 5593 5589 5585 5581 5576 5572 5567 5562
5606 5607 5609 5610 5612 5613 5615 5616 5617 5619 5620 5621 5622 5623 5623 5624 5624 5624 5624 5624 5623 5622 5621 5620 5618 5616 5614 5612 5609 5606 5603 5599 5596 5592 5588 5584 5580 5575 5571 5566 5561 5557 5552
5601 5602 5603 5605 5606 5608 5609 5610 5611 5612 5613 5614 5615 5616 5616 5616 5617 5616 5616 5616 5615 5614 5613 5611 5609 5607 5605 5602 5599 5596 5593 5590 5586 5582 5578 5574 5569 5565 5560 5555 5550 5545 5540